Regional Weather Roundup
Issued by NWS Green Bay, WI

Home | Current Version | Previous Version | Text Only | Print | Product List | Glossary On
Versions: 1 2 3 4 5 6 7 8 9 10 11 12 13 14 15 16 17 18 19 20 21 22 23 24 25 26 27 28 29 30 31 32 33 34 35 36 37 38 39 40 41 42 43 44 45 46 47 48 49 50
000
ASUS43 KGRB 221411
RWRGRB

NORTH-CENTRAL AND NORTHEAST WISCONSIN REGIONAL WEATHER ROUNDUP
NATIONAL WEATHER SERVICE GREEN BAY WI
800 AM CST MON JAN 22 2018

WIZ005-009-010>012-018-019-221500-
NORTH CENTRAL WISCONSIN

CITY           SKY/WX    TMP DP  RH WIND       PRES   REMARKS
IRONWOOD       FLURRIES  27  25  92 NE13G18   29.95S
MANITOWISH WTR CLOUDY    27  27 100 NE14G22   29.88F
ARBOR VITAE    CLOUDY    32  30  92 NE9       29.85F
EAGLE RIVER    CLOUDY    29  28  97 NE15G21   29.87F
LAND O LAKES   CLOUDY    29  28  97 NE9G17    29.90F FOG
RHINELANDER    CLOUDY    31  29  92 E12G21    29.83F
PHILLIPS       CLOUDY    30  29  96 NE18G24   29.83F
ANTIGO         CLOUDY    31  30  94 NE23      29.79F
TOMAHAWK       CLOUDY    31  28  88 NE12G17   29.81F
MERRILL        CLOUDY    33  30  91 NE14G21   29.79F
$$

WIZ013-073-221500-
NORTHEAST WISCONSIN

CITY           SKY/WX    TMP DP  RH WIND       PRES   REMARKS
IRON MOUNTAIN  CLOUDY    32  29  88 NE10      29.89F FOG
MARINETTE      MIX PCPN  33  32  96 NE22G29   29.87F VSB 1/4
OCONTO         CLOUDY    32  32  99 NE16G22   29.83F
$$

WIZ017-030-035>037-045-221500-
CENTRAL WISCONSIN

CITY           SKY/WX    TMP DP  RH WIND       PRES   REMARKS
MEDFORD        CLOUDY    32  29  88 NE17G24   29.74F
WAUSAU         LGT SNOW  33  30  88 NE12      29.73F FOG
MOSINEE        LGT SNOW  32  32 100 NE16G26   29.73F
MARSHFIELD     LGT RAIN  33  32  96 NE21G26   29.69F FOG
WISC RAPIDS    RAIN      34  33  96 E13G21    29.71R FOG
STEVENS POINT  LGT RAIN  32  32 100 NE17G26   29.72F
WAUPACA        RAIN      36  33  90 NE15G22   29.73F
SHAWANO        LGT RAIN  35  32  90 NE16G23   29.78F
CLINTONVILLE   LGT RAIN  34  32  93 E16G28    29.77F
WAUTOMA        RAIN      34  32  92 NE21G26     N/A  FOG
$$

WIZ038-039-048-051-221500-
FOX VALLEY

CITY           SKY/WX    TMP DP  RH WIND       PRES   REMARKS
NWS GREEN BAY  LGT RAIN  33  31  92 NE29G37   29.78F FOG
APPLETON       CLOUDY    34  34 100 NE23      29.71F FOG
OSHKOSH        MIX PCPN  34  33  96 NE16      29.70F FOG
FOND DU LAC    RAIN      37  34  89 NE20G25   29.68F FOG
$$

WIZ022-050-052-221500-
EAST CENTRAL WISCONSIN

CITY           SKY/WX    TMP DP  RH WIND       PRES   REMARKS
EPHRAIM        CLOUDY    33  33  98 NE16G25   29.85F FOG
WASHINGTON ISL FOG       33  33  99 E12       29.89F VSB 3/4
STURGEON BAY   LGT RAIN  36  34  93 NE14      29.83F FOG
MANITOWOC      MIX PCPN  36  35  96 NE14G21   29.75  FOG
SHEBOYGAN      LGT RAIN  36  36 100 NE22      29.71F FOG
$$

LMZ563-521-522-541>543-221500-
LAKESHORE

STATION/POSITION TIME  TEMP    WIND        PRES    VSBY  WAVE
                       AIR SEA DIR/SP/G                  HT/PER
                 (UTC) (F)     (DEG/KT/KT) (MB)    (MI)  (FT/S)
SHEBOYGAN LKSHOR 1400   37      30/ 20/ 21 1006.6F
KEWAUNEE LKSHORE 1342   35      40/ 14/ 19 1008.4F
NORTHPORT PIER   1340   34      60/  1/  5 1012.2F
SISTER BAY LKSHO 1404   36      90/ 10/ 18   N/A
MENOMINEE LKSHOR 1336   33      10/ 23/ 28 1011.2F
$$




USA.gov is the U.S. government's official web portal to all federal, state and local government web resources and services.